[Date Prev][Date Next][Thread Prev][Thread Next] - [Date Index][Thread Index][Author Index]
2 Line ISS Keps 3-4
- Subject: [sarex] 2 Line ISS Keps 3-4
- From: "Dave Larsen PhD" <doc@xxxxxxxxxxx>
- Date: Thu, 3 Mar 2005 18:00:54 -0800
ISS
1 25544U 98067A 05062.79319444 .00013178 00000-0 10995-3 0 9373
2 25544 51.6466 80.0139 0004003 151.4308 201.0351 15.70437761359101
----
Via the sarex mailing list at AMSAT.ORG courtesy of AMSAT-NA.
To unsubscribe, send "unsubscribe sarex" to Majordomo@amsat.org
AMSAT Home